Flag for Germany Weather past 2 weeks in Rastatt, Baden-Württemberg, Germany

Now
63 °F

Scattered showers. Broken clouds.


Feels Like: 63 °F
Forecast: 41 / 47 °F
Wind: 17 mph from Southwest

Location: Karlsruhe - Baden Wurttemberg

Current Time: Oct 21, 2014 at 4:23:24 PM

Latest Report: Oct 21, 2014 at 3:50 PM


Visibility: N/A

Pressure: 29.74 "Hg

Humidity: 56%

Dew point: 46 °F

Location of RastattLocation

Historic Weather in Rastatt — Graph

°F

Rastatt temperature yesterday

Maximum temperature yesterday: 66 °F (at 12:50 PM)
Minimum temperature yesterday: 59 °F (at 10:50 PM)
Average temperature yesterday: 63 °F

Past Weeks' High & Low Weather Summary

 TemperatureHumidityPressure
High75 °F (Oct 19, 2:50 PM)100% (Oct 12, 5:50 AM)30.18 "Hg (Oct 12, 5:50 AM)
Low45 °F (Oct 18, 6:50 AM)50% (Oct 19, 3:50 PM)29.68 "Hg (Oct 7, 8:20 AM)
Average60 °F83%29.91 "Hg
* Reported Oct 6 3:20 PM — Oct 21 3:20 PM, Rastatt, Weather by CustomWeather, © 2014

Note: Actual official high and low records may vary slightly from our data, if they occured in-between our weather recording intervals... More about our weather records

Advertising

Rastatt weather history for previous 24 hours

 ConditionsComfort  
Time TempWeatherWind HumidityBarometerVisibility
3:20 PM
Oct 21
63 °FSprinkles. Broken clouds.16 mph56%29.77 "HgN/A
2:50 PM63 °FBroken clouds.21 mph56%29.77 "HgN/A
2:20 PM63 °FBroken clouds.20 mph56%29.83 "HgN/A
1:50 PM63 °FBroken clouds.16 mph56%29.83 "HgN/A
1:20 PM63 °FBroken clouds.16 mph56%29.83 "HgN/A
12:50 PM64 °FBroken clouds.17 mph52%29.86 "HgN/A
12:20 PM61 °FBroken clouds.18 mph59%29.89 "HgN/A
11:50 AM61 °FScattered showers. Partly sunny.21 mph59%29.92 "HgN/A
11:20 AM63 °FScattered clouds.17 mph59%29.92 "HgN/A
10:50 AM61 °FScattered clouds.15 mph72%29.89 "HgN/A
10:20 AM59 °FScattered clouds.15 mph77%29.92 "HgN/A
9:50 AM59 °FPartly sunny.10 mph82%29.92 "HgN/A
9:20 AM57 °FPartly sunny.10 mph88%29.92 "HgN/A
8:50 AM55 °FScattered showers. Passing clouds.8 mph88%29.95 "HgN/A
8:20 AM54 °FPassing clouds.5 mph94%29.95 "HgN/A
7:50 AM52 °FPassing clouds.5 mph94%29.95 "HgN/A
7:20 AM54 °FPassing clouds.5 mph94%29.95 "HgN/A
6:50 AM55 °FPassing clouds.5 mph88%29.95 "HgN/A
6:20 AM55 °FPartly cloudy.3 mph94%29.95 "HgN/A
5:50 AM55 °FPassing clouds.6 mph94%29.95 "HgN/A
4:50 AM57 °FPartly cloudy.6 mph88%29.98 "HgN/A
4:20 AM55 °FPartly cloudy.5 mph88%29.98 "HgN/A
11:20 PM
Oct 20
59 °FPartly cloudy.5 mph82%30.04 "HgN/A
10:50 PM59 °FSprinkles. Partly cloudy.6 mph82%30.04 "HgN/A
10:20 PM61 °FSprinkles. Passing clouds.3 mph77%30.04 "HgN/A
9:50 PM61 °FPassing clouds.5 mph77%30.04 "HgN/A
9:20 PM61 °FPartly cloudy.3 mph77%30.04 "HgN/A
8:50 PM61 °FPassing clouds.3 mph77%30.04 "HgN/A
8:20 PM63 °FPartly cloudy.3 mph73%30.04 "HgN/A
7:50 PM63 °FPassing clouds.2 mph77%30.04 "HgN/A
7:20 PM63 °FPartly sunny.2 mph77%30.04 "HgN/A
6:50 PM64 °FBroken clouds.2 mph73%30.04 "HgN/A
6:20 PM64 °FBroken clouds.No wind73%30.04 "HgN/A
5:50 PM64 °FPartly sunny.No wind73%30.04 "HgN/A
5:20 PM66 °FPartly sunny.3 mph68%30.07 "HgN/A
4:50 PM66 °FPartly sunny.No wind73%30.07 "HgN/A
4:20 PM66 °FBroken clouds.2 mph73%30.07 "HgN/A
Weather by CustomWeather, © 2014

See weather overviewHow to use our weather pages